| time (UTC) | temp F | wind direction | speed MPH | gust MPH | rain 1hr in | rain 24hr in | rain mn in | humidity % | barometer mb |
| 20260906221805 | 71 | 44 | 2.0 | 3.0 | 0.00 | 0.00 | 0.00 | 69 | 1024.0 |
| 20260906221305 | 71 | 88 | 2.0 | 3.0 | 0.00 | 0.00 | 0.00 | 70 | 1024.0 |
| 20260906215804 | 72 | 79 | 3.0 | 6.0 | 0.00 | 0.00 | 0.00 | 67 | 1024.0 |
| 20260906213804 | 72 | 107 | 1.0 | 3.0 | 0.00 | 0.00 | 0.00 | 67 | 1023.0 |
| 20260906213305 | 72 | 50 | 3.0 | 6.0 | 0.00 | 0.00 | 0.00 | 67 | 1023.0 |
| 20260906212306 | 71 | 43 | 4.0 | 9.0 | 0.00 | 0.00 | 0.00 | 69 | 1023.0 |
| 20260906211805 | 71 | 147 | 3.0 | 6.0 | 0.00 | 0.00 | 0.00 | 70 | 1023.0 |
| 20260906211304 | 71 | 37 | 3.0 | 12.0 | 0.00 | 0.00 | 0.00 | 69 | 1023.0 |
| 20260906210805 | 71 | 61 | 5.0 | 10.0 | 0.00 | 0.00 | 0.00 | 69 | 1023.0 |
| 20260906210305 | 71 | 46 | 3.0 | 9.0 | 0.00 | 0.00 | 0.00 | 70 | 1023.0 |
| 20260906203304 | 72 | 30 | 1.0 | 3.0 | 0.00 | 0.00 | 0.00 | 75 | 1023.0 |
| 20260906202306 | 72 | 319 | 0.0 | 3.0 | 0.00 | 0.00 | 0.00 | 74 | 1023.0 |
| 20260906201805 | 72 | 97 | 1.0 | 3.0 | 0.00 | 0.00 | 0.00 | 73 | 1023.0 |
| 20260906195804 | 73 | 64 | 2.0 | 3.0 | 0.00 | 0.00 | 0.00 | 72 | 1023.0 |
| 20260906195306 | 72 | 45 | 2.0 | 7.0 | 0.00 | 0.00 | 0.00 | 69 | 1023.0 |
| 20260906194805 | 73 | 56 | 1.0 | 3.0 | 0.00 | 0.00 | 0.00 | 71 | 1023.0 |
| 20260906194304 | 73 | 96 | 2.0 | 5.0 | 0.00 | 0.00 | 0.00 | 70 | 1023.0 |
| 20260906193805 | 73 | 48 | 3.0 | 7.0 | 0.00 | 0.00 | 0.00 | 70 | 1023.0 |
| 20260906192804 | 73 | 48 | 3.0 | 6.0 | 0.00 | 0.00 | 0.00 | 66 | 1023.0 |
| 20260906192307 | 73 | 56 | 5.0 | 10.0 | 0.00 | 0.00 | 0.00 | 67 | 1023.0 |
| 20260906191806 | 74 | 22 | 3.0 | 6.0 | 0.00 | 0.00 | 0.00 | 66 | 1023.0 |
| 20260906191305 | 74 | 330 | 1.0 | 3.0 | 0.00 | 0.00 | 0.00 | 71 | 1023.0 |
| 20260906190804 | 75 | 169 | 0.0 | 3.0 | 0.00 | 0.00 | 0.00 | 71 | 1023.0 |
| 20260906190305 | 75 | 218 | 2.0 | 3.0 | 0.00 | 0.00 | 0.00 | 71 | 1023.0 |
| 20260906185805 | 75 | 196 | 1.0 | 2.0 | 0.00 | 0.00 | 0.00 | 70 | 1023.0 |
| 20260906184804 | 75 | 144 | 2.0 | 5.0 | 0.00 | 0.00 | 0.00 | 70 | 1023.0 |
| 20260906183304 | 76 | 238 | 3.0 | 6.0 | 0.00 | 0.00 | 0.00 | 68 | 1023.0 |
| 20260906182805 | 76 | 250 | 2.0 | 3.0 | 0.00 | 0.00 | 0.00 | 68 | 1023.0 |
| 20260906182306 | 76 | 257 | 2.0 | 7.0 | 0.00 | 0.00 | 0.00 | 69 | 1023.0 |
| 20260906181805 | 76 | 221 | 2.0 | 6.0 | 0.00 | 0.00 | 0.00 | 68 | 1023.0 |
| 20260906181304 | 76 | 186 | 2.0 | 5.0 | 0.00 | 0.00 | 0.00 | 68 | 1023.0 |
| 20260906180805 | 76 | 143 | 3.0 | 6.0 | 0.00 | 0.00 | 0.00 | 67 | 1023.0 |
| 20260906180304 | 76 | 217 | 2.0 | 5.0 | 0.00 | 0.00 | 0.00 | 68 | 1023.0 |
| 20260906175805 | 76 | 216 | 3.0 | 5.0 | 0.00 | 0.00 | 0.00 | 68 | 1023.0 |
| 20260906174804 | 76 | 250 | 3.0 | 5.0 | 0.00 | 0.00 | 0.00 | 67 | 1023.0 |
| 20260906174304 | 76 | 166 | 3.0 | 7.0 | 0.00 | 0.00 | 0.00 | 67 | 1023.0 |
| 20260906173804 | 77 | 198 | 3.0 | 7.0 | 0.00 | 0.00 | 0.00 | 66 | 1023.0 |
| 20260906170304 | 77 | 198 | 3.0 | 6.0 | 0.00 | 0.00 | 0.00 | 66 | 1022.0 |
| 20260906165805 | 77 | 199 | 5.0 | 6.0 | 0.00 | 0.00 | 0.00 | 64 | 1022.0 |
| 20260906165306 | 77 | 271 | 5.0 | 7.0 | 0.00 | 0.00 | 0.00 | 66 | 1022.0 |
| 20260906164804 | 77 | 255 | 4.0 | 6.0 | 0.00 | 0.00 | 0.00 | 64 | 1022.0 |
| 20260906164304 | 78 | 265 | 3.0 | 6.0 | 0.00 | 0.00 | 0.00 | 62 | 1022.0 |
| 20260906163804 | 78 | 185 | 3.0 | 7.0 | 0.00 | 0.00 | 0.00 | 65 | 1023.0 |
| 20260906162804 | 77 | 227 | 5.0 | 8.0 | 0.00 | 0.00 | 0.00 | 66 | 1023.0 |
| 20260906162306 | 77 | 218 | 5.0 | 8.0 | 0.00 | 0.00 | 0.00 | 65 | 1023.0 |
| 20260906161804 | 78 | 184 | 3.0 | 6.0 | 0.00 | 0.00 | 0.00 | 63 | 1023.0 |
| 20260906161304 | 77 | 191 | 3.0 | 7.0 | 0.00 | 0.00 | 0.00 | 65 | 1023.0 |
| 20260906160805 | 76 | 209 | 5.0 | 7.0 | 0.00 | 0.00 | 0.00 | 64 | 1023.0 |
| 20260906153304 | 77 | 212 | 3.0 | 7.0 | 0.00 | 0.00 | 0.00 | 64 | 1023.0 |
| 20260906151805 | 78 | 221 | 5.0 | 6.0 | 0.00 | 0.00 | 0.00 | 64 | 1023.0 |
| 20260906151306 | 78 | 209 | 5.0 | 9.0 | 0.00 | 0.00 | 0.00 | 62 | 1023.0 |
| 20260906144805 | 78 | 223 | 4.0 | 6.0 | 0.00 | 0.00 | 0.00 | 62 | 1023.0 |
| 20260906144305 | 78 | 190 | 4.0 | 7.0 | 0.00 | 0.00 | 0.00 | 63 | 1023.0 |
| 20260906143806 | 78 | 190 | 3.0 | 6.0 | 0.00 | 0.00 | 0.00 | 63 | 1023.0 |
| 20260906143305 | 77 | 220 | 5.0 | 7.0 | 0.00 | 0.00 | 0.00 | 65 | 1023.0 |
| 20260906142806 | 77 | 220 | 5.0 | 8.0 | 0.00 | 0.00 | 0.00 | 65 | 1023.0 |
| 20260906140805 | 77 | 209 | 5.0 | 9.0 | 0.00 | 0.00 | 0.00 | 64 | 1023.0 |
| 20260906140306 | 78 | 193 | 5.0 | 10.0 | 0.00 | 0.00 | 0.00 | 64 | 1023.0 |
| 20260906134805 | 77 | 177 | 5.0 | 9.0 | 0.00 | 0.00 | 0.00 | 65 | 1023.0 |
| 20260906132307 | 79 | 151 | 5.0 | 9.0 | 0.00 | 0.00 | 0.00 | 61 | 1023.0 |
| 20260906130305 | 78 | 183 | 5.0 | 10.0 | 0.00 | 0.00 | 0.00 | 63 | 1023.0 |
| 20260906125806 | 78 | 249 | 5.0 | 7.0 | 0.00 | 0.00 | 0.00 | 63 | 1023.0 |
| 20260906123305 | 77 | 197 | 5.0 | 7.0 | 0.00 | 0.00 | 0.00 | 64 | 1024.0 |
| 20260906122806 | 77 | 187 | 4.0 | 7.0 | 0.00 | 0.00 | 0.00 | 62 | 1024.0 |
| 20260906122306 | 78 | 195 | 3.0 | 9.0 | 0.00 | 0.00 | 0.00 | 64 | 1024.0 |
| 20260906121805 | 77 | 197 | 5.0 | 7.0 | 0.00 | 0.00 | 0.00 | 63 | 1024.0 |
| 20260906115806 | 77 | 205 | 4.0 | 9.0 | 0.00 | 0.00 | 0.00 | 66 | 1024.0 |
| 20260906115306 | 77 | 170 | 4.0 | 9.0 | 0.00 | 0.00 | 0.00 | 64 | 1024.0 |
| 20260906114805 | 76 | 240 | 3.0 | 6.0 | 0.00 | 0.00 | 0.00 | 67 | 1024.0 |
| 20260906114306 | 76 | 188 | 3.0 | 6.0 | 0.00 | 0.00 | 0.00 | 68 | 1024.0 |
| 20260906113806 | 79 | 172 | 3.0 | 7.0 | 0.00 | 0.00 | 0.00 | 62 | 1023.0 |
| 20260906113305 | 78 | 149 | 3.0 | 10.0 | 0.00 | 0.00 | 0.00 | 64 | 1023.0 |
| 20260906112806 | 79 | 129 | 3.0 | 12.0 | 0.00 | 0.00 | 0.00 | 60 | 1023.0 |
| 20260906112307 | 77 | 215 | 3.0 | 6.0 | 0.00 | 0.00 | 0.00 | 66 | 1023.0 |
| 20260906111806 | 78 | 92 | 3.0 | 7.0 | 0.00 | 0.00 | 0.00 | 65 | 1023.0 |
| 20260906111305 | 76 | 172 | 2.0 | 7.0 | 0.00 | 0.00 | 0.00 | 64 | 1023.0 |
| 20260906110806 | 78 | 103 | 10.0 | 20.0 | 0.00 | 0.00 | 0.00 | 64 | 1023.0 |
| 20260906110305 | 76 | 181 | 6.0 | 10.0 | 0.00 | 0.00 | 0.00 | 67 | 1023.0 |
| 20260906104305 | 76 | 205 | 3.0 | 6.0 | 0.00 | 0.00 | 0.00 | 67 | 1023.0 |
| 20260906103805 | 76 | 273 | 1.0 | 5.0 | 0.00 | 0.00 | 0.00 | 66 | 1023.0 |
| 20260906103305 | 76 | 179 | 3.0 | 6.0 | 0.00 | 0.00 | 0.00 | 66 | 1023.0 |
| 20260906102306 | 76 | 161 | 3.0 | 8.0 | 0.00 | 0.00 | 0.00 | 70 | 1023.0 |
| 20260906101806 | 75 | 114 | 4.0 | 8.0 | 0.00 | 0.00 | 0.00 | 71 | 1023.0 |
| 20260906100805 | 75 | 84 | 4.0 | 7.0 | 0.00 | 0.00 | 0.00 | 72 | 1023.0 |
| 20260906100306 | 75 | 21 | 3.0 | 5.0 | 0.00 | 0.00 | 0.00 | 73 | 1023.0 |
| 20260906095805 | 75 | 186 | 3.0 | 6.0 | 0.00 | 0.00 | 0.00 | 72 | 1023.0 |
| 20260906095306 | 74 | 150 | 5.0 | 7.0 | 0.00 | 0.00 | 0.00 | 73 | 1023.0 |
| 20260906094805 | 75 | 167 | 2.0 | 7.0 | 0.00 | 0.00 | 0.00 | 70 | 1023.0 |
| 20260906094305 | 76 | 102 | 3.0 | 7.0 | 0.00 | 0.00 | 0.00 | 67 | 1023.0 |
| 20260906093805 | 77 | 34 | 5.0 | 20.0 | 0.00 | 0.00 | 0.00 | 56 | 1023.0 |
| 20260906093305 | 76 | 28 | 6.0 | 14.0 | 0.00 | 0.00 | 0.00 | 56 | 1023.0 |
| 20260906092805 | 76 | 53 | 8.0 | 16.0 | 0.00 | 0.00 | 0.00 | 57 | 1023.0 |
| 20260906092306 | 76 | 64 | 7.0 | 14.0 | 0.00 | 0.00 | 0.00 | 56 | 1023.0 |
| 20260906091805 | 76 | 66 | 5.0 | 12.0 | 0.00 | 0.00 | 0.00 | 57 | 1023.0 |
| 20260906090305 | 75 | 38 | 6.0 | 17.0 | 0.00 | 0.00 | 0.00 | 60 | 1023.0 |
| 20260906085805 | 74 | 46 | 6.0 | 13.0 | 0.00 | 0.00 | 0.00 | 60 | 1023.0 |
| 20260906083805 | 74 | 38 | 6.0 | 12.0 | 0.00 | 0.00 | 0.00 | 60 | 1022.0 |
| 20260906083305 | 74 | 45 | 5.0 | 13.0 | 0.00 | 0.00 | 0.00 | 61 | 1022.0 |
| 20260906081805 | 73 | 74 | 4.0 | 20.0 | 0.00 | 0.00 | 0.00 | 63 | 1022.0 |
| 20260906081306 | 72 | 40 | 6.0 | 16.0 | 0.00 | 0.00 | 0.00 | 64 | 1022.0 |
| 20260906075805 | 71 | 59 | 4.0 | 13.0 | 0.00 | 0.00 | 0.00 | 65 | 1022.0 |
| 20260906075306 | 71 | 27 | 5.0 | 12.0 | 0.00 | 0.00 | 0.00 | 65 | 1022.0 |
| 20260906074806 | 70 | 56 | 4.0 | 9.0 | 0.00 | 0.00 | 0.00 | 67 | 1022.0 |
| 20260906072805 | 69 | 68 | 3.0 | 9.0 | 0.00 | 0.00 | 0.00 | 70 | 1022.0 |
| 20260906072306 | 69 | 39 | 2.0 | 7.0 | 0.00 | 0.00 | 0.00 | 70 | 1022.0 |
| 20260906063805 | 69 | 117 | 9.0 | 15.0 | 0.00 | 0.00 | 0.00 | 73 | 1022.0 |
| 20260906063305 | 69 | 55 | 5.0 | 12.0 | 0.00 | 0.00 | 0.00 | 74 | 1022.0 |
| 20260906062805 | 69 | 35 | 7.0 | 16.0 | 0.00 | 0.00 | 0.00 | 74 | 1022.0 |
| 20260906062306 | 69 | 52 | 4.0 | 12.0 | 0.00 | 0.00 | 0.00 | 75 | 1022.0 |
| 20260906061806 | 69 | 40 | 3.0 | 10.0 | 0.00 | 0.00 | 0.00 | 76 | 1022.0 |
| 20260906060305 | 69 | 36 | 3.0 | 7.0 | 0.00 | 0.00 | 0.00 | 77 | 1022.0 |
| 20260906055809 | 68 | 158 | 3.0 | 7.0 | 0.00 | 0.00 | 0.00 | 76 | 1022.0 |
| 20260906055306 | 68 | 51 | 3.0 | 6.0 | 0.00 | 0.00 | 0.00 | 77 | 1022.0 |
| 20260906054805 | 69 | 34 | 2.0 | 3.0 | 0.00 | 0.00 | 0.00 | 78 | 1022.0 |
| 20260906054305 | 68 | 112 | 3.0 | 6.0 | 0.00 | 0.00 | 0.00 | 77 | 1022.0 |
| 20260906053805 | 69 | 73 | 1.0 | 3.0 | 0.00 | 0.00 | 0.00 | 78 | 1021.0 |
| 20260906053305 | 69 | 31 | 1.0 | 3.0 | 0.00 | 0.00 | 0.00 | 78 | 1021.0 |
| 20260906035306 | 69 | 84 | 7.0 | 13.0 | 0.00 | 0.00 | 0.00 | 69 | 1022.0 |
| 20260906031305 | 69 | 63 | 5.0 | 12.0 | 0.00 | 0.00 | 0.00 | 70 | 1022.0 |
| 20260906024805 | 69 | 56 | 3.0 | 12.0 | 0.00 | 0.00 | 0.00 | 71 | 1022.0 |
| 20260906024305 | 69 | 55 | 5.0 | 12.0 | 0.00 | 0.00 | 0.00 | 71 | 1022.0 |
| 20260906020305 | 68 | 30 | 1.0 | 6.0 | 0.00 | 0.00 | 0.00 | 72 | 1022.0 |
| 20260906015804 | 68 | 62 | 2.0 | 8.0 | 0.00 | 0.00 | 0.00 | 73 | 1022.0 |
| 20260906015306 | 68 | 69 | 3.0 | 5.0 | 0.00 | 0.00 | 0.00 | 72 | 1022.0 |
| 20260906014805 | 68 | 23 | 1.0 | 3.0 | 0.00 | 0.00 | 0.00 | 72 | 1022.0 |
| 20260906014305 | 68 | 31 | 1.0 | 5.0 | 0.00 | 0.00 | 0.00 | 73 | 1022.0 |
| 20260906013805 | 68 | 27 | 2.0 | 3.0 | 0.00 | 0.00 | 0.00 | 73 | 1022.0 |
| 20260906011305 | 70 | 91 | 0.0 | 3.0 | 0.00 | 0.00 | 0.00 | 79 | 1022.0 |
| 20260906010804 | 69 | 114 | 2.0 | 3.0 | 0.00 | 0.00 | 0.00 | 78 | 1022.0 |
| 20260906010305 | 69 | 65 | 1.0 | 3.0 | 0.00 | 0.00 | 0.00 | 76 | 1022.0 |
| 20260906005805 | 69 | 76 | 1.0 | 3.0 | 0.00 | 0.00 | 0.00 | 74 | 1022.0 |
| 20260906004305 | 69 | 30 | 3.0 | 12.0 | 0.00 | 0.00 | 0.00 | 74 | 1022.0 |
| 20260906003805 | 69 | 58 | 2.0 | 3.0 | 0.00 | 0.00 | 0.00 | 77 | 1023.0 |
| 20260906003304 | 69 | 61 | 2.0 | 3.0 | 0.00 | 0.00 | 0.00 | 76 | 1023.0 |
| 20260906002805 | 69 | 42 | 2.0 | 3.0 | 0.00 | 0.00 | 0.00 | 73 | 1023.0 |
| 20260906002306 | 68 | 30 | 1.0 | 3.0 | 0.00 | 0.00 | 0.00 | 72 | 1023.0 |
| 20260905234305 | 68 | 24 | 1.0 | 2.0 | 0.00 | 0.00 | 0.00 | 81 | 1023.0 |
| 20260905233804 | 69 | 25 | 1.0 | 2.0 | 0.00 | 0.00 | 0.00 | 82 | 1023.0 |
| 20260905233304 | 69 | 22 | 2.0 | 3.0 | 0.00 | 0.00 | 0.00 | 82 | 1023.0 |
| 20260905232306 | 69 | 24 | 0.0 | 1.0 | 0.00 | 0.00 | 0.00 | 81 | 1023.0 |
| 20260905231805 | 69 | 30 | 0.0 | 2.0 | 0.00 | 0.00 | 0.00 | 81 | 1023.0 |
| 20260905231304 | 69 | 33 | 2.0 | 3.0 | 0.00 | 0.00 | 0.00 | 80 | 1023.0 |
| 20260905230804 | 69 | 35 | 2.0 | 3.0 | 0.00 | 0.00 | 0.00 | 81 | 1023.0 |
| 20260905230305 | 69 | 17 | 2.0 | 3.0 | 0.00 | 0.00 | 0.00 | 81 | 1023.0 |
| 20260905225805 | 69 | 35 | 2.0 | 3.0 | 0.00 | 0.00 | 0.00 | 80 | 1023.0 |
| 20260905225306 | 69 | 35 | 2.0 | 3.0 | 0.00 | 0.00 | 0.00 | 80 | 1023.0 |
| 20260905224305 | 69 | 40 | 2.0 | 3.0 | 0.00 | 0.00 | 0.00 | 79 | 1023.0 |
| 20260905222306 | 70 | 44 | 0.0 | 1.0 | 0.00 | 0.00 | 0.00 | 78 | 1022.0 |